Regional Weather Roundup
Issued by NWS

Home | Current Version | Previous Version | Text Only | Print | Product List | Glossary On
Versions: 1 2 3 4 5 6 7 8 9 10 11 12 13 14 15 16 17 18 19 20 21 22 23 24 25 26 27 28 29 30 31 32 33 34 35 36 37 38 39 40 41 42 43 44 45 46 47 48 49 50
000
ASUS43 KMPX 040901
RWRMN
WEATHER ROUNDUP FOR MINNESOTA
NATIONAL WEATHER SERVICE TWIN CITIES/CHANHASSEN MN
300 AM CST WED MAR 04 2015


NOTE: "FAIR" INDICATES FEW OR NO CLOUDS BELOW 12,000 FEET WITH NO
SIGNIFICANT WEATHER AND/OR OBSTRUCTIONS TO VISIBILITY. N/A MEANS
CURRENT SKY AND/OR WEATHER CONDITIONS ARE NOT AVAILABLE.

MNZ060>063-068>070-041000-
   Twin Cities Metro

CITY           SKY/WX    TMP DP  RH WIND       PRES   REMARKS
TWIN CITIES    PTCLDY     2  -7  66 W8        30.10R WCI -12
ST PAUL        CLEAR      4  -5  66 W13       30.11R WCI -13
CRYSTAL        CLEAR      2  -8  63 W8        30.09R WCI -12
BLAINE         CLEAR      3  -6  66 W8        30.07R WCI -10
LAKEVILLE      CLEAR      0  -8  71 W10       30.08S WCI -17
EDEN PRAIRIE   CLEAR      1  -8  66 W7        30.09R WCI -12
SOUTH ST PAUL  CLEAR      4  -6  63 W6        30.09S WCI  -7
LAKE ELMO      FAIR       3  -4  72 W7        30.08R WCI  -9
$$
MNZ001>005-007-008-013>017-022>024-027-028-041000-
   Northwest Minnesota

CITY           SKY/WX    TMP DP  RH WIND       PRES   REMARKS
BEMIDJI        CLEAR     -7 -12  79 W8        29.94F WCI -23
HALLOCK        CLOUDY    -6 -13  71 NW12      30.03R WCI -24
ROSEAU         CLEAR     -9 -15  77 W7        29.97S WCI -24
WARROAD        CLEAR    -11 -18  70 W6        29.95F WCI -25
THIEF RVR FALL CLEAR     -8 -13  77 W9        29.99S WCI -25
CROOKSTON      CLEAR     -6 -11  77 NW10      30.05R WCI -23
FOSSTON        CLEAR    -11 -15  84 W7        29.99S WCI -26
DETROIT LAKES  CLEAR     -2  -8  78 W8        30.01S WCI -17
MOORHEAD       CLEAR      0  -8  71 W8        30.09R WCI -15
PARK RAPIDS    CLEAR     -9 -15  75 W10       29.97R WCI -27
MAHNOMEN       FAIR      -5 -11  74 W12       30.00S WCI -23
$$
MNZ006-009>011-018-025>026-041000-
   North Central Minnesota

CITY           SKY/WX    TMP DP  RH WIND       PRES   REMARKS
BAUDETTE       CLEAR    -11 -16  78 SW6       29.93R WCI -25
FLAG ISLAND    CLEAR    -11 -18  70 W7        29.93S WCI -26
INTL FALLS     CLEAR     -9 -15  75 W8        29.91R WCI -25
WASKISH        CLEAR     -9 -13  84 W7        29.94S WCI -24
BIG FORK       CLOUDY    -8 -13  77 W3        29.92S
LONGVILLE      PTCLDY    -8 -11  84 W5        29.97R WCI -19
GRAND RAPIDS   CLOUDY    -6 -11  77 W10       29.91R WCI -23
CRANE LAKE     CLEAR     -6 -13  71 W3        29.92R
ORR            CLEAR     -8 -15  71 W8        29.86S WCI -23
COOK           MOCLDY    -8 -11  84 W6        29.89S WCI -21
WALKER         FAIR      -6 -13  71 W5        29.96R WCI -17
$$
MNZ012-019>021-037-041000-
   Northeast Minnesota

CITY           SKY/WX    TMP DP  RH WIND       PRES   REMARKS
DULUTH         CLEAR     -4 -11  72 W13       29.89R WCI -23
ELY            PTCLDY    -8 -11  84 W7        29.84R FOG     WCI -22
HIBBING        CLEAR     -6 -13  71 W7        29.90S WCI -20
EVELETH        CLEAR     -6 -11  77 W8        29.89S WCI -21
DULUTH HARBOR  CLEAR      1  -9  60 SW10      30.00S WCI -14
TWO HARBORS    CLEAR      0  -9  65 W7        29.87F WCI -13
SILVER BAY     CLEAR      0  -9  65 CALM      29.86R
GRAND MARAIS     N/A      1 -10  60 W6        29.88R WCI -10
G MARAIS ARPRT CLEAR     -8 -17  65 W13G24    29.72R WCI -28
$$
MNZ029>031-032-039>041-046>048-054>057-064-041000-
   West Central Minnesota

CITY           SKY/WX    TMP DP  RH WIND       PRES   REMARKS
FERGUS FALLS   FAIR      -8 -15  71 W8        30.12R WCI -23
WHEATON        CLEAR     -6 -11  77 W6        30.13S WCI -18
MORRIS         CLEAR     -6 -11  77 W9        30.08F WCI -22
ALEXANDRIA     CLEAR     -7 -11  83 W9        30.04S WCI -24
ELBOW LAKE     FAIR      -6 -11  79 W9        30.06F WCI -22
WADENA         CLEAR     -8 -13  77 W7        30.01S WCI -22
GLENWOOD       CLEAR     -8 -11  84 W9        30.06S WCI -25
APPLETON       CLEAR     -2  -9  71 W8        30.13S WCI -17
BENSON         CLEAR     -2  -9  71 NW10      30.10S WCI -19
ORTONVILLE     CLEAR      0  -9  65 W8        30.11F WCI -15
MADISON        CLEAR      0  -9  65 W8        30.14S WCI -15
WILLMAR        FAIR       0  -8  71 W8        30.10S WCI -15
$$
MNZ033>034-036-042>043-049>051-058-059-041000-
   Central Minnesota

CITY           SKY/WX    TMP DP  RH WIND       PRES   REMARKS
ST CLOUD       CLEAR     -1  -9  68 W14       30.06R WCI -20
SAUK CENTRE    FAIR      -7 -12  79 W8        30.06S WCI -22
PAYNESVILLE    CLEAR     -6 -11  79 SW7       30.07F WCI -20
AITKIN         CLEAR     -2  -9  71 SW6       29.98R WCI -14
PINE RIVER     CLEAR     -6  -9  84 W3        30.02R
BRAINERD       CLEAR     -3 -11  68 W8        30.01R WCI -18
STAPLES        CLEAR    -11 -17  77 W8        30.01F WCI -28
LITTLE FALLS   CLEAR     -2  -9  71 W5        30.05S WCI -12
LITCHFIELD     CLEAR      1  -6  71 CALM      30.09R
BUFFALO        CLEAR      0  -8  70 W6        30.10R WCI -12
MAPLE LAKE     CLEAR      1  -6  73 W8        30.08S WCI -13
$$
MNZ037-044-045-052-053-041000-
   East Central Minnesota

CITY           SKY/WX    TMP DP  RH WIND       PRES   REMARKS
PRINCETON      CLEAR      0  -8  71 W7        30.05R WCI -13
MORA           CLEAR      0  -9  65 W6        30.04S WCI -12
RUSH CITY      MOCLDY    -3  -9  76 W6        30.04S WCI -15
MOOSE LAKE     CLEAR     -2 -13  60 CALM      29.97R
HINCKLEY       FAIR       0  -6  78 W5        30.01S WCI -10
CLOQUET        FAIR      -4 -11  71 W8        29.93R WCI -19
MCGREGOR       CLEAR     -2  -9  71 W6        29.99R WCI -14
$$
MNZ071>073-080-081-089-090-097-098-041000-
   Southwest Minnesota

CITY           SKY/WX    TMP DP  RH WIND       PRES   REMARKS
MONTEVIDEO     CLEAR      0  -8  71 NW7       30.13S WCI -13
GRANITE FALLS  CLEAR     -1  -7  75 W9        30.15S WCI -16
CANBY          CLEAR      1  -8  66 W8        30.14S WCI -13
MARSHALL       CLEAR      0  -9  65 NW12      30.13S WCI -18
REDWOOD FALLS  CLEAR      0  -8  69 W10       30.12S WCI -16
OLIVIA         CLEAR      0  -6  78 NW7       30.11S WCI -13
PIPESTONE      PTCLDY    -2  -8  78 W7        30.10S WCI -16
WINDOM         CLEAR      0  -8  71 W5        30.12S WCI -10
WORTHINGTON    CLEAR      1  -8  66 W9        30.13S WCI -14
JACKSON        PTCLDY     3  -6  66 NW9       30.11S WCI -11
TRACY          CLEAR      2  -6  69 W7        30.12S WCI -11
SLAYTON        CLEAR     -2 -10  68 CALM      30.11S
$$
MNZ065>067-074>077-082>085-091>093-041000-
   South Central Minnesota

CITY           SKY/WX    TMP DP  RH WIND       PRES   REMARKS
MANKATO        CLEAR      3  -6  66 NW9       30.11S WCI -11
NEW ULM        CLEAR      0  -9  65 W7        30.13S WCI -13
ST JAMES       CLEAR      3  -6  66 W10       30.14S WCI -12
FAIRMONT       CLEAR      5  -6  61 NW15      30.10F WCI -13
GLENCOE        CLEAR      2  -5  71 W9        30.10R WCI -13
FARIBAULT      PTCLDY     1  -6  71 W7        30.09S WCI -11
OWATONNA       PTCLDY     3  -4  72 W10       30.08S WCI -12
ALBERT LEA     PTCLDY     3  -2  78 NW12      30.07F WCI -13
$$
MNZ078>079-086>088-094>096-041000-
   Southeast Minnesota

CITY           SKY/WX    TMP DP  RH WIND       PRES   REMARKS
ROCHESTER      CLEAR      2  -6  69 NW20      30.02S WCI -19
RED WING       CLEAR      5  -6  61 W8        30.07R WCI  -8
STANTON        CLEAR      3  -6  64 W10       30.08R WCI -12
DODGE CENTER   PTCLDY     3  -6  66 NW16      30.03F WCI -16
WINONA         CLEAR     10   1  67 NW14      30.07S WCI  -5
AUSTIN         PTCLDY     3  -2  78 NW17      30.05S WCI -17
PRESTON        PTCLDY     3  -4  72 NW17G24   30.03S WCI -16
$$
ABBREVIATIONS USED IN REMARKS
   TC - TEMPERATURES IN CELSIUS
  WCI - WIND CHILL INDEX
   HX - HEAT INDEX
  VSB - VISIBILITY
$$



USA.gov is the U.S. government's official web portal to all federal, state and local government web resources and services.